Tracking 33190 objects as of 9-Feb-2026
HD Live streaming from Space Station
objects crossing your sky now

TIANQI 39

Track TIANQI 39 now!
10-day predictions


NORAD ID: 67478
Int'l Code: 2026-010C
Perigee: 844.2 km
Apogee: 868.0 km
Inclination: 45.0 °
Period: 101.9 minutes
Semi major axis: 7227 km
RCS: Unknown
Launch date: January 15, 2026
Source: People's Republic of China (PRC)
Launch site: Yellow Sea Launch Area, China (YSLA)
Your satellite tracking list
Your tracking list is empty




NASA's NSSDC Master Catalog

Two Line Element Set (TLE):
1 67478U 26010C   26039.27859865  .00000167  00000-0  15988-3 0  9999
2 67478  44.9839 296.6613 0016488  82.3005 277.9705 14.13055169  3329
Source of the keplerian elements: AFSPC